RH
13 15 16 15 15 13 13 13 12 12 11 11 13 11 15 17 14 24 41 51 59 63 55 45 48 49 38 28 21 17 17 18 22 29 33 34 32 29 27 26 25 25 26 23 21 19 23 41 61 68 66 62 58 53 53 57 62 58 49 42 35 36 40 29 18 15 21 30 22 15 21 18 17 18 17 20 24 28 27 23 23 24 25 24 25
16 17 17 16 14 13 13 12 12 11 10 12 10 11 18 18 20 36 47 55 67 70 62 50 45 43 31 22 19 17 19 23 32 44 50 49 47 43 36 34 33 34 31 24 21 20 29 50 64 67 63 60 58 54 56 58 56 48 37 39 39 37 37 23 16 18 17 21 18 21 31 24 21 21 18 20 20 22 22 22 24 23 24 25 24
16 16 16 13 13 13 12 12 12 11 12 11 9 15 21 25 44 60 58 65 75 72 67 58 44 35 26 19 18 19 23 35 51 62 66 64 62 56 49 47 47 42 34 25 21 20 35 58 65 64 61 60 59 56 59 56 46 40 31 33 37 37 39 25 17 19 17 17 17 26 32 29 38 37 23 21 20 21 23 22 24 23 23 24 23
14 14 14 12 13 12 11 12 11 11 12 9 11 16 21 43 73 76 63 66 72 69 68 64 47 30 23 22 20 24 37 56 73 79 78 77 74 69 65 63 56 45 33 26 23 24 43 64 64 61 61 61 62 60 61 51 42 42 33 30 31 33 43 34 19 18 18 17 17 24 25 29 47 39 23 27 24 21 24 23 24 23 22 23 22
14 13 13 13 13 12 11 12 11 12 11 9 16 22 36 70 80 59 47 48 56 64 67 68 58 35 24 27 28 40 59 76 86 86 84 83 81 79 73 63 53 44 33 25 25 33 53 66 62 61 62 61 63 62 58 46 42 45 36 32 28 24 36 34 21 19 19 18 17 20 21 26 34 24 24 37 30 21 23 22 23 22 21 21 20
15 13 13 12 12 12 12 12 11 12 9 12 23 29 45 67 56 41 47 48 55 68 68 70 69 48 35 39 50 67 80 88 92 89 87 85 81 76 65 51 45 40 32 26 31 46 62 66 61 63 61 60 62 60 52 43 43 43 34 33 27 17 23 24 20 20 18 18 18 18 20 21 22 19 24 31 26 21 22 21 21 21 20 20 20
15 13 13 12 12 12 11 11 11 11 10 13 20 22 30 42 41 46 55 55 61 70 70 72 75 67 60 66 78 87 90 94 96 91 89 85 77 65 49 39 38 34 31 35 45 59 67 64 63 63 59 58 57 54 49 43 40 34 26 25 22 16 18 19 20 21 18 19 18 18 19 19 20 21 21 22 23 23 22 21 21 21 20 21 22
14 13 13 13 12 12 11 11 11 11 12 13 14 14 21 34 46 54 52 49 54 60 68 73 76 81 83 85 86 83 89 97 96 94 92 82 67 54 40 34 35 36 40 52 63 70 69 65 64 62 59 56 53 52 48 39 31 26 22 20 18 16 18 19 21 20 19 19 17 17 18 18 19 20 20 21 22 23 23 22 22 22 21 21 20
13 13 13 13 12 12 11 11 11 12 13 12 12 14 22 30 38 46 48 48 49 55 67 72 74 82 85 84 82 80 90 96 90 89 85 72 57 45 35 33 43 55 66 75 78 76 71 67 64 62 59 54 51 51 43 31 25 23 20 18 17 17 18 19 20 19 18 17 17 17 18 18 19 19 20 21 21 22 23 22 22 22 21 19 15
13 12 13 12 12 12 11 12 12 12 13 12 12 14 20 21 23 34 44 48 51 59 70 72 71 77 83 88 86 82 87 87 83 85 79 66 53 39 29 38 61 79 86 88 85 79 74 69 65 63 58 54 54 48 35 26 24 21 19 18 18 18 19 19 19 18 17 17 17 18 19 20 20 20 21 21 21 21 21 21 22 22 21 17 13
13 13 13 12 12 12 12 13 13 13 13 12 12 12 14 17 23 38 48 50 56 64 70 69 70 77 85 93 91 85 86 82 80 86 80 65 51 36 34 53 74 82 86 89 85 81 77 70 66 63 58 57 55 42 29 25 22 19 19 19 18 19 19 19 18 17 17 18 19 19 20 20 20 21 21 21 21 21 22 23 22 22 19 14 10
14 13 13 12 12 12 12 13 13 13 13 12 11 11 14 21 31 45 52 57 64 67 66 64 69 80 85 90 90 85 86 83 81 84 74 57 46 37 46 67 77 77 83 88 86 84 78 71 66 61 59 59 50 34 26 24 21 19 19 18 18 19 18 18 18 17 18 18 19 20 20 21 21 22 22 22 22 22 23 23 21 17 13 9 6
14 13 13 12 11 12 13 13 13 13 12 12 10 12 20 25 32 44 50 59 67 65 66 71 76 80 80 83 85 82 83 84 83 80 66 53 45 42 59 79 82 82 84 85 87 86 78 70 65 60 60 55 40 28 25 22 20 19 18 18 18 17 17 18 18 19 20 21 22 24 25 25 26 26 25 25 24 24 23 19 15 11 7 5 3
14 13 13 11 11 13 13 12 13 12 12 11 10 16 26 28 35 46 50 59 68 66 72 83 81 77 76 78 80 84 87 86 84 77 68 67 63 60 76 89 88 86 83 81 86 84 75 68 62 60 59 48 33 28 25 21 20 19 18 18 18 18 20 20 22 24 27 30 32 33 34 33 32 29 28 27 25 23 19 13 9 6 4 2 1
14 13 12 11 12 13 13 12 13 12 12 11 11 19 30 33 38 47 50 59 69 72 80 86 82 78 79 79 80 86 89 88 87 80 74 80 79 75 85 91 87 86 84 83 83 77 71 65 60 61 57 42 33 30 25 22 22 21 20 21 21 23 25 27 32 36 40 43 44 43 41 38 34 31 28 26 23 18 12 8 5 3 2 1 1
13 13 11 11 12 12 12 12 12 12 12 11 13 22 33 38 41 44 52 62 68 74 83 85 82 82 83 82 82 86 89 88 90 84 76 80 81 78 84 87 84 85 87 85 79 72 69 64 63 63 52 39 35 32 27 24 24 23 24 25 27 30 34 40 44 48 51 51 50 47 43 38 33 30 27 22 17 11 7 4 2 1 2 1 1
12 12 11 12 13 13 12 12 13 12 12 12 15 25 34 40 43 46 55 63 68 75 82 81 79 80 80 80 80 86 90 87 87 83 75 78 83 86 87 85 83 85 87 83 76 71 67 66 67 59 45 39 39 35 29 26 25 25 27 30 35 39 44 49 52 54 55 53 51 46 41 36 32 27 22 15 10 6 3 2 2 1 2 1 1
12 12 13 13 13 13 12 12 13 11 12 14 17 28 37 38 41 48 54 58 65 74 81 82 78 76 78 79 80 87 91 87 85 79 73 77 87 93 91 85 83 85 84 79 74 71 68 68 63 49 40 41 41 35 29 26 26 29 33 37 42 46 50 53 55 56 56 54 50 44 39 34 27 20 14 9 5 3 1 1 2 1 1 2 2
12 12 13 13 12 12 12 12 13 12 13 14 19 32 38 35 37 47 52 55 63 73 79 81 77 74 78 81 83 87 88 88 84 76 75 83 92 94 89 82 82 82 79 75 73 72 71 66 54 41 40 44 41 36 32 30 32 35 39 43 46 49 53 56 58 58 57 53 48 42 35 28 20 13 8 5 3 2 1 2 2 2 2 2 2
12 12 12 12 12 11 12 13 12 12 13 14 22 34 37 35 39 46 51 55 62 70 75 81 82 77 76 81 85 87 87 89 85 77 80 87 89 88 83 80 82 81 76 74 74 74 72 62 47 39 43 47 44 41 38 37 38 40 43 47 49 52 56 60 62 60 57 51 44 37 27 18 12 7 4 2 2 2 2 2 2 2 2 2 2
11 10 11 11 11 11 12 13 12 13 13 13 24 36 36 37 42 45 50 54 60 68 76 87 90 80 76 81 85 86 87 86 81 78 81 82 82 84 83 82 83 80 76 75 74 74 71 59 44 41 47 49 47 44 40 39 40 41 44 46 48 53 60 64 64 60 55 46 36 27 17 10 6 4 2 2 2 2 2 2 2 2 2 3 3
10 10 10 10 11 11 12 13 12 12 12 15 27 37 36 38 44 47 50 53 62 74 83 89 86 75 75 81 81 83 86 80 75 76 78 77 78 82 85 85 83 80 77 75 73 73 67 53 42 42 48 50 48 44 40 39 40 41 42 44 50 59 66 66 62 56 48 37 25 15 8 5 3 2 2 2 2 2 2 2 2 2 2 3 3
10 9 10 10 10 12 12 12 12 12 12 18 31 38 36 40 47 49 50 56 67 79 82 80 75 69 72 77 77 78 79 73 71 72 73 76 78 80 84 87 84 80 78 75 73 70 61 48 42 44 48 49 48 44 42 41 41 41 44 49 59 67 69 64 58 49 37 24 13 7 4 2 2 2 2 2 2 2 2 2 2 3 3 3 4
10 9 9 10 11 12 12 12 13 14 14 22 35 39 38 44 50 50 54 60 67 75 75 70 68 69 73 77 76 75 74 72 72 70 72 78 81 81 84 88 85 80 77 75 72 67 60 51 44 43 46 49 48 46 45 44 44 46 53 61 70 72 69 61 51 37 23 12 6 3 2 2 2 2 2 2 2 2 2 3 3 3 3 3 4
9 9 10 11 11 12 13 15 16 16 18 27 38 41 41 46 50 52 57 59 64 75 76 70 71 72 71 73 75 75 73 73 72 73 79 85 83 81 83 86 85 80 76 74 71 67 62 53 45 43 45 48 49 49 47 45 48 55 62 70 76 74 66 53 38 23 11 5 3 2 2 2 2 2 2 2 2 2 3 3 3 4 4 4 4
11 11 11 11 13 14 16 19 20 19 22 31 41 43 43 47 51 55 57 59 67 79 78 73 75 75 72 73 75 73 72 73 73 76 83 88 85 82 85 87 84 80 78 75 71 67 62 55 48 45 46 48 50 49 46 49 56 61 64 70 73 67 55 39 23 11 5 3 3 2 2 2 2 2 2 2 3 3 3 3 4 4 4 4 4
11 11 12 12 15 17 19 22 21 22 28 36 43 45 46 50 54 57 58 64 75 84 82 77 77 76 74 73 72 72 72 73 73 75 80 86 85 83 86 87 85 83 80 75 70 65 60 55 50 47 47 49 48 47 49 57 63 64 64 66 63 52 38 24 11 5 3 2 2 2 2 3 2 3 3 2 3 3 3 4 4 4 4 4 4
12 12 13 14 16 18 20 22 24 27 34 41 46 48 50 55 59 61 64 71 81 86 84 80 78 77 75 70 68 70 72 73 73 74 77 82 86 88 88 87 86 84 78 71 66 60 55 52 49 49 49 48 48 51 58 65 67 67 65 59 50 37 24 12 6 3 3 2 2 2 3 3 3 3 3 3 3 4 4 5 4 4 4 4 4
12 12 13 15 16 17 21 25 29 34 40 46 49 49 53 59 63 66 70 76 83 84 80 76 78 82 79 71 68 69 69 71 74 75 77 83 88 90 87 85 84 81 74 68 64 58 54 52 51 50 51 51 54 60 65 68 68 65 60 51 38 25 13 6 3 2 2 2 3 3 3 3 3 3 3 3 4 4 4 5 5 4 4 4 4
13 14 15 16 16 19 25 30 35 41 46 49 49 50 56 63 67 72 75 78 83 85 81 77 80 84 80 74 72 69 68 70 72 75 81 85 85 81 80 82 81 78 73 69 66 61 56 53 52 54 56 60 64 68 68 68 65 60 52 41 28 15 7 3 2 2 2 3 3 3 3 3 3 3 3 4 4 5 5 5 4 4 4 4 5
15 17 16 16 19 24 29 34 39 45 48 49 51 54 61 66 71 77 79 80 84 88 86 82 83 83 78 75 73 72 73 73 72 76 81 82 78 76 79 81 79 76 75 73 68 63 59 57 59 62 65 68 70 69 68 65 60 52 43 31 18 8 4 2 2 2 3 3 3 3 3 3 3 3 4 4 4 5 5 5 4 4 5 5 5
16 18 18 19 23 27 31 37 42 46 48 50 53 58 62 68 75 80 83 84 85 86 83 78 78 79 77 75 74 73 75 75 75 78 81 81 80 79 78 79 77 77 77 74 69 65 64 65 67 69 70 70 70 69 66 60 52 44 34 22 11 5 2 2 2 3 3 3 3 3 3 3 3 3 4 4 5 5 5 5 5 5 5 5 5
16 17 20 22 26 30 36 40 42 44 48 52 58 64 67 73 79 82 84 84 80 76 73 70 72 76 77 77 78 76 75 78 81 83 83 86 87 83 78 78 80 81 80 75 70 67 68 69 69 69 69 69 69 66 61 53 46 37 25 14 6 3 2 2 2 3 3 3 4 3 3 3 3 4 4 5 5 5 5 5 5 5 6 5 5
20 21 23 26 31 36 39 40 39 42 49 55 63 69 73 77 79 77 77 76 71 68 69 72 76 79 79 79 81 79 77 80 85 86 88 89 88 84 82 83 85 85 82 77 72 69 70 70 69 69 70 70 68 62 54 47 39 28 16 7 3 2 2 3 3 3 4 3 4 3 3 4 4 4 5 5 5 5 5 5 6 5 5 5 6
25 27 29 31 35 36 35 35 37 42 49 55 61 67 73 78 74 67 66 68 65 63 68 76 81 82 81 80 80 78 78 81 84 87 89 87 84 85 87 89 93 90 83 78 75 73 72 72 71 71 71 69 64 57 49 40 29 17 8 3 2 2 2 3 3 4 4 4 4 4 3 4 4 5 5 5 5 5 5 6 6 6 6 6 6
30 31 33 34 34 33 32 33 34 39 47 54 58 62 68 73 67 57 58 63 61 60 68 78 82 81 79 78 76 76 79 80 81 84 85 83 84 86 82 84 93 93 85 79 76 73 73 72 72 73 70 66 60 52 43 32 19 9 3 2 3 3 3 4 4 4 4 4 4 4 4 4 5 5 5 5 6 6 6 6 6 6 6 6 6
34 33 33 33 32 32 32 33 34 38 46 53 57 61 64 67 64 56 55 58 59 60 69 79 82 79 76 77 77 78 80 81 81 83 84 84 87 84 74 76 89 91 83 77 73 71 72 73 73 72 67 62 55 46 34 21 10 4 2 3 3 3 3 4 4 4 4 4 4 4 4 5 5 5 6 6 6 6 6 6 6 6 7 7 6
35 33 31 31 31 32 32 33 36 41 46 51 55 59 61 62 59 56 55 56 58 63 71 78 81 80 77 79 80 81 82 84 84 84 84 83 82 77 72 76 83 82 76 72 71 71 73 73 72 69 63 57 48 36 22 11 4 2 3 3 3 4 4 4 4 5 4 4 4 4 4 5 5 6 6 6 6 6 6 7 7 7 7 8 7
35 32 32 33 33 35 35 36 38 41 46 50 53 57 62 63 63 62 61 59 60 67 72 74 78 80 78 79 82 83 84 84 82 81 79 75 73 72 73 76 76 74 72 71 71 73 74 73 70 65 59 51 39 24 11 4 2 3 3 3 4 4 4 4 5 5 5 4 4 4 5 6 6 6 7 7 7 7 8 8 8 8 9 9 10
36 34 36 37 37 39 38 39 41 44 47 49 52 59 68 71 70 68 64 59 60 67 73 73 76 79 77 78 81 82 83 83 81 79 75 70 69 71 72 72 72 71 71 72 73 74 74 71 66 61 54 42 25 11 4 2 3 3 3 4 4 4 4 5 5 5 5 5 4 5 6 6 6 7 7 8 8 8 9 9 9 9 10 11 11
37 36 37 38 39 41 42 43 45 47 49 50 52 59 68 73 72 68 64 63 64 68 73 75 78 80 79 79 79 81 84 84 83 82 78 71 69 70 70 71 71 72 73 74 75 76 73 68 62 55 44 27 12 4 3 3 3 3 4 4 4 4 5 5 5 5 5 5 5 5 6 6 7 8 8 8 9 9 10 9 9 10 11 12 13
35 33 34 35 39 43 45 48 49 48 50 53 54 59 69 77 77 71 68 68 70 72 74 77 81 82 81 81 81 83 86 84 81 83 81 74 71 72 74 74 74 75 76 77 77 75 70 64 55 42 26 11 5 4 4 4 3 4 4 4 4 5 5 5 6 6 5 5 5 6 6 7 7 9 9 9 9 10 10 10 10 12 12 13 14
33 34 34 35 40 46 48 51 52 51 53 56 58 63 72 79 80 75 70 68 69 72 73 75 77 79 81 85 87 87 87 86 85 86 85 78 74 75 77 80 80 79 79 79 77 73 67 57 42 25 11 4 4 5 4 4 4 4 4 4 4 5 5 5 6 6 5 6 6 6 7 8 8 10 10 10 11 11 11 11 12 13 13 14 14
33 34 34 33 40 50 53 54 55 55 57 59 62 69 76 79 79 77 73 69 68 69 72 74 75 77 81 86 88 86 86 88 90 92 92 85 77 75 80 84 83 82 81 79 76 70 60 44 25 12 7 6 6 5 4 4 4 4 4 5 5 5 5 6 6 6 6 6 6 7 8 8 10 11 11 12 12 12 12 12 13 14 14 14 14
30 32 34 36 42 50 54 55 55 56 60 61 63 70 77 79 79 78 77 75 70 67 70 74 78 80 82 84 84 84 85 87 90 96 97 88 78 79 84 85 84 85 82 78 73 63 46 28 14 9 10 8 6 4 4 4 4 4 4 5 5 5 6 6 7 6 6 6 6 7 8 9 11 12 13 13 13 13 13 14 14 15 15 15 15
28 30 32 34 37 39 39 39 38 39 46 52 56 62 68 73 76 79 80 78 73 69 72 76 79 80 81 81 82 83 85 87 92 96 94 86 82 85 87 86 85 84 80 76 67 49 30 20 16 13 12 9 5 3 4 4 4 4 5 5 5 5 6 7 7 6 6 6 7 8 9 10 12 13 14 15 14 14 15 15 15 16 15 15 15
27 28 27 27 27 26 24 23 23 23 28 35 39 42 48 56 66 75 81 80 74 72 74 77 79 80 79 80 82 84 85 88 91 90 88 86 86 88 89 89 87 83 79 73 55 34 27 29 25 18 14 9 4 3 4 4 4 5 5 5 5 6 7 7 7 7 6 6 7 8 9 11 13 15 16 16 16 16 16 16 16 16 16 16 16
26 26 26 26 25 24 24 24 24 24 24 25 28 33 40 48 55 64 75 79 75 73 75 77 79 80 79 81 85 87 86 87 88 89 89 90 90 91 90 89 86 80 72 56 38 31 38 39 29 19 14 8 3 3 4 4 4 5 5 5 6 7 8 8 8 7 7 7 8 9 10 12 15 16 17 17 17 17 17 17 17 16 17 16 16
26 25 25 26 26 26 26 25 25 25 23 25 35 44 50 55 58 61 69 74 73 72 73 75 77 80 80 83 88 90 89 89 91 92 93 92 91 90 89 86 83 75 57 37 32 41 48 39 24 14 8 3 3 4 4 4 5 5 5 5 6 7 8 8 8 7 7 7 8 9 11 13 15 17 17 18 18 18 18 18 17 17 17 16 16
26 26 26 26 25 25 26 25 25 25 22 31 51 63 63 63 66 68 71 76 78 77 75 74 76 78 79 83 89 92 92 92 91 89 89 88 86 84 84 83 79 68 49 36 41 51 48 34 19 9 4 3 4 4 4 5 5 5 5 6 7 7 8 8 8 8 7 8 9 10 11 14 15 17 17 18 18 18 18 18 17 17 17 16 16
28 28 28 27 26 26 26 25 26 25 22 31 54 72 75 73 76 77 76 79 85 87 85 80 79 81 82 84 89 94 93 90 87 85 84 83 80 78 78 79 75 63 47 41 49 55 49 34 19 9 4 4 3 3 5 5 4 5 6 6 7 8 8 9 9 8 8 8 9 10 11 13 15 16 17 18 18 18 18 18 17 17 17 16 16
Wind_Speed
29 30 31 30 30 28 25 22 21 22 21 20 22 23 23 23 22 22 21 22 21 21 22 22 25 28 29 30 29 28 28 25 23 23 23 23 23 23 22 22 20 18 17 16 14 12 11 9 9 10 10 10 11 10 10 10 9 7 6 5 5 5 5 5 5 5 5 6 6 5 4 5 6 7 7 6 5 6 8 10 12 14 16 19 21
31 31 33 31 29 28 25 23 24 24 23 22 23 24 24 24 23 24 23 21 20 20 20 21 25 27 27 28 27 26 25 23 22 23 23 24 24 24 23 22 20 18 17 16 14 13 11 10 11 11 11 11 11 11 10 10 8 6 5 5 5 5 5 4 4 4 5 5 6 6 6 6 7 7 7 7 7 8 10 12 15 17 19 21 23
34 34 34 32 30 28 27 26 26 25 24 23 24 25 26 26 26 26 23 20 19 18 17 19 24 27 26 26 25 24 23 22 22 23 24 24 24 24 23 21 19 18 17 16 14 13 11 11 12 12 11 12 12 11 11 9 6 5 6 6 5 5 5 4 4 4 4 4 4 5 6 7 7 6 8 8 9 10 12 14 17 19 20 22 24
36 36 35 33 31 31 30 29 27 25 25 25 26 27 28 29 30 26 21 18 17 17 17 19 24 28 28 27 25 24 23 23 24 25 25 24 24 23 22 20 18 17 17 16 14 13 12 12 12 12 11 11 12 11 10 8 5 5 6 6 5 5 5 4 4 4 4 3 3 3 4 6 5 7 9 9 10 12 13 15 17 20 22 24 26
35 35 35 34 33 32 30 28 27 26 26 26 27 29 32 33 28 21 18 17 18 19 19 21 26 29 29 28 26 25 25 25 26 26 25 24 23 22 21 19 17 17 17 16 14 13 13 13 12 12 11 12 12 11 9 6 5 5 6 7 6 6 5 4 4 5 4 3 3 3 4 5 6 9 10 10 11 13 15 17 19 21 23 25 26
35 35 34 34 32 30 29 28 27 26 26 27 29 32 34 29 19 15 17 19 21 21 21 23 27 29 29 28 26 25 25 26 26 26 24 23 22 22 20 18 17 16 16 15 14 14 14 13 12 11 12 12 13 11 8 6 5 6 6 7 7 7 6 5 5 5 4 4 4 4 5 7 8 9 10 12 14 16 17 19 21 23 25 27 28
37 35 34 33 32 30 29 30 28 26 26 28 31 31 28 22 17 17 18 18 20 22 22 24 28 30 29 28 27 25 25 27 27 25 23 22 21 21 19 18 17 17 16 15 14 15 14 13 12 12 12 13 12 10 8 7 6 6 7 8 8 7 6 6 5 4 4 5 5 6 7 8 9 10 11 13 16 18 20 21 23 26 27 29 30
39 36 34 33 32 30 30 30 27 25 26 28 29 25 20 19 20 20 19 18 19 21 23 24 28 31 30 30 29 27 27 29 27 23 21 21 20 19 18 17 17 17 16 16 15 15 14 13 12 13 13 13 12 11 9 7 7 7 8 8 8 7 6 5 5 5 6 6 6 7 8 9 10 11 12 14 16 19 23 24 25 27 28 29 30
39 37 36 35 33 30 30 29 27 25 26 28 25 21 19 20 21 20 20 21 21 23 25 23 26 29 29 29 28 27 29 29 26 23 21 19 18 18 18 18 18 18 17 16 15 15 14 13 13 14 14 13 12 10 8 8 8 8 8 8 7 6 5 5 5 6 7 7 8 9 10 11 12 13 14 16 17 19 22 25 27 28 29 29 29
40 38 37 36 34 31 29 27 26 26 26 27 25 23 21 20 21 22 21 22 24 25 24 22 25 27 27 27 27 27 29 27 26 24 21 18 18 18 19 19 19 18 17 15 15 15 14 13 14 15 14 13 12 10 8 8 8 8 8 7 7 6 5 5 6 6 7 8 9 10 11 13 14 15 16 17 18 20 22 24 27 29 30 31 31
40 40 39 37 35 32 28 26 26 27 27 27 26 24 20 19 22 24 23 24 26 25 23 21 24 27 28 27 25 26 28 26 25 24 21 19 19 19 19 18 16 15 15 15 14 14 14 14 15 15 14 13 11 10 9 8 8 8 8 7 6 6 6 6 6 7 8 9 10 11 12 14 15 16 17 18 19 21 22 24 26 28 30 32 32
40 41 40 37 36 33 28 26 27 28 28 27 25 22 20 21 25 25 23 25 25 24 21 20 23 29 31 28 25 25 26 27 26 24 21 19 19 19 19 16 15 15 16 15 14 14 14 15 16 15 14 13 11 10 9 9 8 8 7 7 6 6 6 6 7 7 8 10 11 12 13 15 16 17 18 19 20 21 23 24 25 27 29 31 32
40 41 39 37 35 32 28 26 28 29 28 26 23 22 22 23 27 25 24 25 25 22 20 20 24 30 32 30 26 25 26 27 25 22 19 18 19 19 17 16 16 16 16 15 15 15 15 16 17 15 14 12 11 10 9 9 8 7 7 6 6 6 6 7 7 8 10 11 13 14 15 16 17 18 19 20 21 22 22 23 24 26 27 29 29
40 40 38 36 33 31 28 27 28 30 28 24 23 24 24 25 27 24 23 25 23 20 20 23 24 27 31 29 28 28 28 26 23 20 19 18 18 17 15 15 16 15 15 16 16 16 16 16 16 15 13 12 11 10 10 9 8 7 7 7 6 7 7 8 9 10 12 13 14 15 16 17 18 19 19 20 21 21 22 22 23 24 26 27 26
39 39 38 36 32 31 30 28 29 30 27 24 25 26 26 27 26 23 22 23 21 19 20 22 22 23 26 27 27 28 28 26 22 19 19 17 15 16 15 15 15 14 15 16 16 16 16 17 16 14 13 11 11 11 10 9 8 8 7 7 7 7 8 10 11 13 14 15 16 16 17 18 18 19 19 20 20 20 21 22 22 23 24 25 25
36 37 37 34 32 31 30 29 30 30 27 25 27 28 27 26 24 21 23 22 20 19 19 21 21 21 22 24 25 25 25 24 19 16 17 14 12 16 16 15 16 16 16 15 15 16 16 17 16 13 12 11 11 11 11 10 9 9 8 8 8 9 10 12 13 14 15 16 16 17 17 18 18 19 19 19 20 20 21 22 22 22 22 22 24
34 34 33 31 30 29 29 30 31 30 27 26 27 29 27 24 21 21 23 22 18 17 18 20 19 20 21 21 23 23 22 21 17 14 13 11 12 15 14 13 14 15 15 15 16 16 16 16 14 13 11 11 11 11 11 11 10 10 9 9 10 11 12 14 15 15 16 16 17 17 17 17 18 18 18 19 20 21 21 21 21 22 22 22 22
32 31 31 30 29 28 29 31 31 30 27 26 28 29 27 22 19 21 22 19 15 14 17 18 16 17 18 18 20 22 21 17 14 11 9 10 13 13 10 10 13 13 14 15 17 17 16 15 14 12 11 11 11 11 11 11 11 10 10 10 12 13 14 15 15 16 16 17 17 17 17 17 17 17 18 19 20 20 21 21 21 22 22 22 23
31 30 29 29 29 29 30 31 31 30 27 26 28 29 25 20 19 21 21 17 14 15 17 17 15 14 14 14 16 18 20 17 13 9 8 10 13 11 9 11 12 12 14 16 17 18 16 15 14 12 11 11 11 10 10 10 10 10 11 12 13 14 16 16 16 16 16 16 16 16 16 16 17 17 18 19 19 20 20 20 21 21 22 23 24
30 29 28 29 28 28 30 31 31 29 27 27 30 28 23 19 19 20 20 17 15 16 17 18 17 13 10 13 15 17 20 18 12 8 8 11 11 10 10 12 12 13 15 17 18 18 17 15 14 12 11 11 10 10 9 10 10 11 12 14 15 16 17 17 17 16 16 16 16 15 15 15 16 17 18 18 19 19 19 20 20 21 22 23 23
30 28 27 27 27 28 31 31 31 29 28 29 30 26 21 19 20 20 19 17 16 16 18 20 20 15 11 13 17 16 15 12 8 6 8 10 10 10 11 13 13 14 16 17 18 17 17 15 13 12 11 11 10 9 10 10 11 12 13 15 16 17 17 17 16 16 15 15 14 14 14 15 16 17 17 18 18 19 19 20 20 21 21 22 22
28 27 27 27 27 30 32 32 31 30 29 29 28 24 21 20 21 21 20 18 17 19 22 22 20 15 12 15 16 12 8 7 7 7 8 10 10 11 13 14 14 16 17 17 17 16 16 15 13 12 11 11 11 10 11 12 13 14 15 17 18 18 17 16 15 14 13 13 12 12 13 14 15 16 16 17 18 19 19 20 21 21 21 21 21
26 26 27 27 28 31 32 31 31 30 29 29 27 24 21 21 22 22 20 19 20 22 20 17 14 12 13 15 13 9 8 7 8 9 10 10 10 10 13 15 15 16 17 17 17 16 16 15 13 12 12 12 11 11 12 13 14 16 17 19 19 17 16 15 14 13 11 11 11 11 12 13 14 15 16 17 18 18 19 20 20 21 21 20 20
26 27 28 28 30 31 31 31 30 29 28 28 27 24 22 22 22 21 21 21 22 20 15 10 10 11 12 13 10 9 11 11 11 13 15 12 9 9 11 14 15 16 17 17 17 16 15 14 13 13 13 13 12 13 14 15 16 18 19 19 18 16 15 14 13 11 9 9 10 10 11 12 13 14 16 16 17 17 18 19 20 20 20 21 21
27 28 29 30 30 29 29 28 27 26 27 28 27 25 22 22 22 22 22 22 20 18 13 9 10 11 13 14 11 10 13 14 14 16 15 12 10 10 12 14 15 16 17 16 16 16 15 14 14 14 14 13 13 14 15 16 18 19 19 17 16 14 13 12 10 8 8 8 9 10 11 12 13 14 15 15 16 17 18 19 19 19 20 21 23
28 28 29 29 28 27 26 26 25 25 27 28 27 25 22 21 22 23 22 21 18 17 14 11 11 13 14 13 11 10 12 14 15 13 9 9 10 13 16 16 16 16 16 15 15 14 14 14 14 14 14 14 14 15 16 17 18 18 16 14 12 11 10 9 8 7 7 8 9 9 10 11 13 13 13 14 15 17 17 17 18 19 20 22 23
27 27 28 28 27 26 25 25 25 26 27 27 26 23 21 21 22 23 22 20 19 19 17 14 13 13 13 12 11 11 11 13 13 10 8 9 11 14 17 17 16 15 14 14 14 13 14 14 14 14 14 14 15 16 17 17 17 16 14 11 9 8 8 7 6 6 7 8 8 9 10 11 12 12 12 14 15 16 16 16 17 19 20 22 22
26 26 27 27 27 26 26 27 27 27 26 25 24 21 20 21 22 22 22 20 20 20 18 15 13 13 13 13 12 12 11 12 12 11 11 11 12 14 14 14 14 14 14 14 14 13 14 14 14 14 14 15 15 16 17 17 16 15 12 9 7 6 6 5 5 6 7 7 8 9 10 10 10 11 12 13 14 15 15 16 18 19 20 20 20
25 26 26 28 28 28 28 27 26 25 24 23 22 20 20 21 22 23 22 20 19 19 17 15 15 15 15 14 13 11 11 12 13 13 13 13 15 15 14 13 14 14 14 14 13 14 14 14 14 14 14 15 16 16 16 15 14 12 9 7 6 5 4 4 5 6 6 6 7 8 9 9 9 10 11 12 13 14 15 16 18 19 19 19 18
24 27 28 29 29 29 27 25 23 22 22 21 20 19 19 21 22 23 21 20 20 19 17 16 17 16 15 16 15 13 12 12 13 14 15 15 16 15 14 13 14 14 15 15 14 14 14 13 13 13 14 15 16 15 14 13 11 9 7 6 5 4 4 4 5 5 5 5 6 7 8 8 9 10 11 12 13 13 15 16 18 18 18 17 17
25 28 29 30 29 27 24 22 21 21 20 19 19 19 20 21 22 21 21 21 21 19 16 16 17 17 17 17 16 15 14 13 13 14 15 15 15 14 13 14 15 15 16 15 14 14 13 13 13 14 15 15 15 14 12 10 9 8 6 5 4 3 4 4 4 4 4 5 5 6 7 8 9 10 11 11 12 13 14 16 16 16 15 15 16
26 29 29 29 28 25 22 22 21 20 19 18 18 19 20 20 20 20 21 20 20 19 17 18 19 19 18 16 15 14 14 14 14 14 15 15 13 13 14 15 16 16 16 14 13 13 13 13 14 15 15 15 13 12 10 9 8 7 6 5 4 4 4 3 3 3 4 4 5 7 8 9 9 10 10 11 12 13 14 15 14 14 14 15 15
27 29 29 28 26 24 22 21 20 18 18 18 18 18 18 18 17 18 18 18 18 19 20 20 20 19 19 17 16 15 14 15 15 15 15 14 14 14 16 17 18 17 16 14 13 13 13 14 15 15 15 13 11 10 9 8 7 7 6 5 4 4 4 3 3 3 3 4 6 7 8 9 9 9 10 11 12 13 14 13 13 13 14 15 16
26 28 27 27 25 23 21 20 18 17 18 19 19 19 18 17 16 16 17 18 18 18 19 19 19 19 17 17 16 16 16 16 17 17 15 14 14 16 17 19 19 18 16 15 15 15 15 15 15 15 13 11 10 9 8 8 7 7 6 5 5 4 4 4 3 3 3 4 6 7 8 8 8 8 9 10 11 12 12 11 12 13 14 15 16
27 27 27 25 23 21 20 18 18 18 19 20 20 19 18 17 16 16 17 19 18 17 18 18 17 17 17 17 17 16 17 18 19 18 16 15 16 17 19 21 21 19 18 17 16 16 16 15 14 13 12 10 10 9 8 8 8 7 7 6 5 5 4 4 3 2 3 5 6 7 7 7 7 7 8 9 10 10 9 10 11 12 14 15 16
26 26 25 23 20 18 18 18 17 18 19 20 19 18 18 17 16 16 17 18 18 18 18 17 16 17 17 17 17 16 17 19 19 18 17 16 17 17 19 20 21 21 19 18 17 15 14 13 13 12 11 10 9 9 9 9 8 8 8 7 6 5 4 3 2 2 3 5 5 6 5 5 5 6 7 8 8 8 8 9 10 12 14 15 16
23 23 21 19 18 18 17 17 17 18 19 20 19 19 17 16 17 16 16 17 17 17 17 17 17 17 17 17 16 16 17 18 18 18 18 18 18 17 17 16 18 20 19 17 15 14 13 12 12 12 11 10 10 10 10 10 10 9 8 7 6 5 4 2 1 2 4 4 5 4 4 4 4 5 7 7 7 7 7 9 11 13 15 16 17
22 20 19 18 17 17 17 17 18 18 19 19 18 17 17 15 15 15 15 16 17 17 18 18 18 17 18 17 17 16 17 18 18 18 18 17 17 17 16 16 17 19 18 16 14 13 13 12 12 11 11 10 11 11 11 11 11 10 9 8 6 5 3 2 1 2 3 3 4 3 3 2 3 5 6 6 6 6 8 10 12 14 16 17 19
22 21 20 19 18 18 18 18 18 19 19 18 16 16 15 14 13 13 14 16 17 17 18 18 18 18 19 19 18 17 17 18 18 17 17 18 18 18 18 18 18 18 17 15 14 13 13 13 12 12 12 12 12 12 12 12 11 10 9 8 6 5 3 2 2 2 3 3 2 2 1 1 2 4 4 4 5 6 8 10 12 14 16 17 19
21 21 21 19 19 18 18 18 19 19 19 17 16 15 13 13 12 13 14 15 17 18 19 19 19 20 20 20 19 18 18 18 18 17 17 19 20 21 20 20 19 18 16 15 15 14 14 13 13 13 13 13 13 13 13 13 12 10 9 8 6 5 4 3 2 2 2 2 2 2 1 0 1 2 2 3 4 5 7 10 12 13 15 16 18
16 15 15 16 17 18 18 19 19 19 19 19 18 16 14 13 13 13 13 14 16 19 20 20 21 22 22 21 21 21 20 19 19 18 18 20 22 23 22 21 19 18 17 16 15 15 14 14 14 14 14 14 14 15 15 13 12 11 9 8 7 6 5 4 3 3 3 2 2 3 2 1 1 1 1 1 3 4 6 9 11 12 14 15 17
16 12 10 12 15 18 19 19 19 19 20 21 21 19 17 16 15 13 12 13 16 18 20 21 23 23 22 22 22 22 20 19 19 20 21 22 24 24 23 21 19 18 17 16 16 15 15 15 14 14 14 15 16 16 15 14 12 11 9 8 7 6 5 4 4 3 3 3 4 4 3 2 2 2 1 0 2 3 6 8 10 11 13 15 17
19 17 14 13 15 18 19 19 20 20 21 22 23 21 19 18 16 14 13 14 16 19 20 22 23 23 22 22 21 21 20 19 20 22 23 24 25 23 21 19 18 18 17 17 16 16 15 14 14 15 15 16 16 15 15 14 12 11 10 8 8 7 6 5 4 4 4 4 5 5 4 4 4 3 2 1 1 3 5 7 9 11 13 15 17
19 20 20 19 17 17 17 18 19 19 20 22 22 20 18 17 16 16 15 16 19 20 21 22 22 21 21 21 21 20 20 21 22 23 24 25 24 23 20 19 18 18 17 17 17 16 15 14 15 16 17 17 17 16 15 14 12 11 10 9 8 7 6 5 5 5 5 6 6 6 6 5 5 4 3 2 1 2 4 7 8 10 13 15 17
16 17 19 19 18 16 16 16 17 17 18 19 20 19 18 17 16 16 16 18 21 22 21 21 21 20 20 20 21 21 22 22 22 22 24 24 24 22 20 19 18 18 18 18 17 16 15 15 16 18 18 18 18 17 16 14 13 12 11 9 8 8 7 6 6 6 6 6 7 7 7 6 6 5 4 3 2 3 4 6 8 10 13 15 17
16 15 16 16 16 16 16 16 16 16 17 18 18 18 18 17 16 16 17 20 22 23 22 21 20 20 20 21 21 21 21 20 20 22 24 24 23 21 20 19 19 19 18 18 17 16 16 17 18 19 20 19 19 18 16 15 13 12 11 10 9 8 7 7 6 6 6 7 8 8 8 8 7 6 4 4 3 3 5 6 8 11 13 15 18
16 15 14 14 15 15 15 16 16 16 16 17 18 18 17 16 16 17 19 21 23 24 23 21 21 21 21 21 21 20 19 19 20 22 23 23 23 22 21 20 19 19 18 18 17 17 18 18 19 20 21 21 20 19 17 15 14 13 11 10 10 9 8 7 7 7 7 8 9 9 9 9 8 7 6 5 4 4 5 7 9 11 14 16 18
19 18 17 17 17 16 16 16 16 16 17 17 16 15 15 16 17 18 20 22 24 24 23 22 22 22 22 21 20 20 20 20 20 20 21 22 23 22 21 20 19 18 18 17 17 17 18 19 20 21 21 21 21 19 18 16 15 13 12 11 10 9 8 8 8 8 8 10 11 11 10 10 9 8 7 6 5 6 7 8 10 12 14 16 18
21 21 20 19 19 18 18 17 17 17 17 16 14 13 14 16 17 19 21 22 24 24 24 23 23 23 22 20 19 20 21 20 20 20 21 22 22 22 21 21 21 20 19 18 18 18 18 19 21 22 22 22 21 20 18 16 15 13 13 12 10 10 9 9 8 9 10 11 12 12 11 11 10 9 8 7 7 7 8 9 11 13 15 17 19
21 21 21 21 21 20 20 19 19 19 18 16 15 15 15 17 18 19 21 21 22 23 24 24 24 23 22 20 20 20 20 20 20 20 21 22 22 22 22 22 22 22 22 22 21 20 20 21 23 24 23 23 22 20 18 17 15 14 13 12 11 10 10 9 9 10 11 11 12 12 12 12 11 10 9 9 9 9 9 11 12 14 16 18 20
21 21 21 22 22 22 22 21 20 20 19 17 18 20 20 20 21 21 21 21 21 23 23 24 24 23 21 21 21 21 20 20 20 20 21 22 23 23 23 23 23 23 23 23 22 21 21 23 24 25 25 24 23 21 19 17 16 15 13 12 11 11 11 10 11 11 11 12 13 13 14 13 13 12 11 10 10 10 11 12 13 15 17 19 20
Wind_Direction
203 201 205 206 205 204 206 215 224 231 238 245 250 251 248 244 246 243 240 242 243 245 247 240 227 218 214 216 219 220 221 220 218 219 221 223 225 227 229 233 235 235 237 239 241 241 240 240 244 246 243 241 243 244 252 264 274 286 295 304 313 315 312 315 324 322 319 325 332 341 347 337 332 339 354 2 356 347 339 335 333 334 336 337 336
197 198 201 200 201 206 212 220 228 235 240 246 251 248 242 242 243 240 239 241 242 244 248 243 230 220 217 220 222 225 227 224 223 223 223 223 225 228 230 232 234 234 236 238 238 237 238 238 241 240 236 237 241 242 250 260 269 280 290 306 317 317 310 305 308 306 310 321 321 328 337 335 335 338 343 346 342 338 337 333 331 333 334 332 331
196 198 200 201 205 211 216 223 229 237 243 247 247 240 237 239 237 235 235 237 240 244 249 246 233 222 219 223 227 230 231 228 225 223 222 223 225 228 230 232 233 233 233 234 233 234 236 238 237 235 235 239 240 240 249 257 259 269 289 307 316 312 300 286 284 288 293 301 305 311 319 322 329 328 328 329 329 330 329 327 326 329 329 328 327
200 201 203 205 209 214 218 225 231 239 245 246 242 234 234 234 230 230 235 238 242 245 247 243 233 225 221 222 225 227 230 229 226 222 222 223 224 227 229 230 231 229 229 228 227 231 235 235 234 235 239 239 238 241 247 251 253 270 291 304 308 301 284 267 266 273 277 285 293 299 301 304 306 309 312 310 312 316 319 321 322 324 324 323 324
205 205 206 208 211 216 221 227 234 240 245 243 236 232 231 231 229 234 247 252 250 248 245 238 231 229 225 223 224 225 228 229 225 222 222 223 224 225 226 227 225 223 225 226 225 230 231 231 233 238 241 238 236 240 242 242 256 274 287 297 297 286 274 261 255 265 277 289 294 299 297 291 289 298 304 303 306 313 317 320 319 318 319 320 321
208 208 209 210 213 218 223 229 236 241 241 235 230 231 234 238 243 250 255 256 251 246 243 235 229 228 227 225 225 226 229 228 224 222 221 222 223 223 221 219 218 218 221 224 225 227 227 228 234 238 237 236 236 236 236 241 262 274 282 292 289 275 266 259 254 262 278 293 297 299 297 294 293 296 302 305 310 314 316 318 318 318 319 320 321
208 208 209 212 214 218 224 231 237 238 234 229 230 234 239 249 256 250 249 251 251 249 244 234 227 226 226 224 224 226 228 226 221 220 221 221 218 217 215 214 215 217 220 223 224 225 225 227 232 235 235 235 235 234 237 252 267 272 277 283 279 268 258 257 264 273 278 283 288 288 287 288 291 296 301 306 311 314 316 317 318 318 318 319 321
208 209 210 213 214 218 226 232 234 229 227 228 231 236 239 242 245 244 243 244 249 253 248 235 227 227 227 225 225 225 225 224 219 217 220 218 214 212 213 213 214 217 219 221 223 223 223 226 229 233 234 235 237 237 243 259 266 270 277 278 272 263 258 262 274 283 284 286 287 288 289 290 293 298 304 308 313 316 316 317 317 317 319 321 324
209 210 212 215 217 222 228 230 226 221 224 229 231 232 229 230 240 244 241 239 242 246 244 234 227 229 228 226 224 221 221 223 221 217 216 214 211 212 213 213 214 215 215 214 218 219 218 222 227 229 232 236 238 241 249 261 265 271 278 276 266 259 261 269 275 282 287 291 292 294 296 299 302 306 309 313 315 315 314 314 316 318 321 324 326
208 211 214 217 220 223 225 223 220 219 224 229 229 227 224 229 243 249 247 243 242 242 239 232 229 227 225 223 222 222 223 224 221 216 212 211 212 213 213 213 213 215 216 210 210 215 214 219 226 228 232 237 239 243 253 261 265 271 274 268 261 257 260 268 275 282 287 289 293 297 300 303 308 311 314 315 315 313 313 314 317 319 323 326 328
207 210 214 216 216 218 219 218 219 222 225 228 229 229 226 230 242 247 244 242 243 241 235 234 231 224 221 224 224 225 224 220 217 214 209 209 213 214 213 215 217 221 223 214 207 212 214 218 225 228 233 237 239 245 255 258 260 266 266 260 257 259 263 270 277 283 287 291 295 299 303 308 312 315 316 316 315 315 316 318 320 322 324 326 328
206 209 212 214 213 214 217 220 222 224 227 228 230 229 222 226 238 242 242 241 242 241 237 238 232 222 221 225 226 227 224 216 213 213 209 207 212 214 211 213 221 224 224 218 211 210 213 219 225 229 234 235 237 246 251 252 257 262 261 258 257 261 267 273 280 286 291 296 300 304 308 312 314 316 316 317 317 317 319 322 324 326 326 327 329
207 210 214 215 214 214 219 225 226 227 229 228 228 223 216 226 237 241 244 243 242 242 236 231 228 222 220 223 226 228 226 220 213 206 203 202 207 213 212 214 222 223 220 216 212 211 213 219 224 229 232 232 238 247 248 249 257 261 257 256 259 265 273 279 286 292 296 300 304 308 311 313 315 316 317 318 319 321 324 326 327 327 327 329 330
210 214 218 219 217 218 223 229 230 229 229 228 225 217 214 227 237 238 241 241 242 244 233 225 226 222 218 222 228 226 221 219 211 201 201 203 205 211 215 219 223 222 218 213 211 213 216 219 225 229 229 232 242 248 247 249 256 259 257 259 265 273 281 286 292 296 299 303 307 310 313 314 316 317 319 321 323 325 327 328 329 328 329 330 332
214 219 223 225 224 224 228 231 230 228 229 227 223 215 214 227 235 238 240 238 238 241 235 231 231 224 219 220 224 221 214 210 203 200 207 208 211 218 218 220 222 216 213 212 211 214 217 221 225 229 229 235 247 249 246 249 254 257 259 265 272 280 285 290 295 299 302 307 310 312 314 315 318 320 322 324 326 327 328 330 331 332 332 332 334
217 221 225 227 227 228 229 228 227 226 226 226 222 217 216 225 232 236 237 235 236 237 235 236 235 229 225 222 221 217 210 206 198 197 209 214 221 225 220 222 222 213 208 211 215 216 219 222 225 226 229 239 249 250 248 250 254 258 263 270 277 284 290 294 299 302 305 308 310 312 314 317 321 323 325 327 328 330 331 332 334 335 337 336 336
216 220 223 225 226 228 226 224 224 223 224 225 222 218 218 223 229 231 233 234 234 234 236 240 238 233 229 229 230 221 205 199 194 195 210 220 223 220 215 216 214 208 206 212 219 220 220 222 223 223 229 242 251 252 252 252 255 260 266 275 282 289 293 296 300 303 306 308 310 313 317 321 324 326 328 330 331 333 334 335 337 338 339 339 338
219 221 223 223 224 225 221 221 222 222 222 223 222 219 219 221 224 227 232 235 233 231 234 237 236 235 232 234 238 224 202 194 195 198 213 224 219 214 210 205 200 202 210 217 222 223 222 222 221 222 231 245 252 254 253 253 256 262 271 279 286 290 294 296 301 304 306 308 312 316 321 325 327 330 332 333 334 335 337 339 341 341 341 340 340
222 223 223 222 221 221 218 220 222 222 222 222 221 219 218 219 222 226 232 234 231 229 232 232 232 237 233 226 227 215 200 200 204 205 219 224 217 215 214 203 194 202 214 222 225 224 222 221 218 223 234 244 250 251 252 253 259 267 275 282 287 290 294 298 302 305 307 311 316 321 325 328 331 333 335 336 337 339 341 343 342 342 343 342 341
222 223 222 220 219 217 217 219 222 223 222 221 221 218 216 217 220 227 231 231 229 227 231 232 229 233 229 212 209 202 196 199 206 211 226 229 223 220 212 197 194 208 218 223 226 223 221 220 220 226 236 243 247 249 252 257 264 271 278 284 289 293 296 300 303 305 309 315 320 324 328 332 334 336 337 338 340 341 342 344 344 345 345 344 343
221 222 220 218 216 214 215 219 221 221 222 222 220 216 214 216 218 225 230 229 227 226 228 227 222 224 226 215 213 206 192 187 191 206 226 234 233 223 206 193 198 215 222 225 226 223 221 221 223 230 237 243 247 251 257 264 269 276 283 289 292 295 298 300 302 307 314 320 324 327 332 335 337 338 339 340 341 342 343 345 346 347 348 347 347
219 219 217 215 214 213 214 218 220 221 222 221 218 213 213 216 216 222 227 226 226 224 223 221 218 218 224 227 224 208 178 170 183 201 221 237 243 230 208 195 202 217 224 227 226 224 223 223 227 234 238 244 250 257 265 271 277 284 289 292 293 296 298 301 306 312 320 323 325 331 336 339 340 341 342 342 342 343 345 347 348 348 350 350 351
215 216 215 214 213 212 213 217 219 221 222 218 214 212 215 216 215 220 223 224 226 226 225 222 221 222 231 241 237 207 187 191 196 208 224 235 243 232 207 194 202 218 224 226 226 224 225 227 232 238 242 248 256 264 272 278 284 289 291 293 294 296 300 305 311 317 321 323 329 337 340 343 344 343 343 342 343 345 347 348 349 349 352 354 354
211 214 214 212 210 210 213 216 218 220 219 214 211 212 215 215 216 218 220 223 226 229 231 231 226 223 231 245 241 213 209 206 203 212 216 214 221 225 207 194 203 218 224 225 225 225 228 233 236 241 246 252 260 269 276 282 287 290 292 294 295 297 302 308 312 315 320 326 335 341 343 345 345 343 343 343 344 347 348 350 352 354 354 355 355
210 211 209 207 208 211 213 214 216 215 214 212 210 213 216 216 217 217 219 226 229 226 226 227 222 220 228 238 236 223 219 215 218 221 208 194 205 215 206 200 208 219 223 223 223 226 232 236 240 245 249 256 263 271 278 283 288 291 294 295 296 300 305 308 308 313 323 333 340 344 346 346 344 344 344 345 347 350 351 354 356 357 357 356 356
205 203 202 204 206 208 209 210 211 211 211 211 211 214 217 217 217 217 221 229 228 223 221 221 220 218 224 232 231 226 221 218 228 235 210 192 209 210 202 204 214 221 221 221 223 228 234 239 244 249 253 258 265 272 279 284 287 292 296 298 299 303 305 304 307 318 330 337 343 346 346 345 344 344 345 347 351 353 354 357 359 359 358 357 357
198 198 200 201 202 203 205 208 211 211 211 212 212 215 218 216 216 218 222 225 222 220 219 217 219 220 220 227 229 225 222 218 226 242 236 215 212 209 206 210 218 223 223 224 227 231 238 243 247 250 253 259 266 273 279 283 287 291 295 298 301 302 302 302 311 323 333 340 345 345 344 343 343 345 348 352 354 355 358 1 1 360 358 357 356
198 199 200 199 198 201 205 209 212 212 211 210 211 214 214 214 216 218 221 220 218 220 220 218 222 220 214 222 231 228 222 219 222 236 237 218 208 216 222 221 222 223 224 227 230 237 242 244 246 248 253 260 267 273 278 281 284 287 291 294 296 297 299 304 315 326 335 342 344 341 339 341 344 349 354 356 357 359 2 2 1 360 358 356 355
203 202 200 198 199 204 208 210 210 209 208 208 209 211 210 210 214 217 219 217 217 223 226 225 226 221 213 217 229 232 227 225 227 231 230 219 217 226 231 227 226 225 226 229 235 241 243 242 244 248 254 261 267 271 275 278 281 282 285 287 289 293 299 306 316 327 336 338 335 335 337 342 350 357 360 0 2 3 2 1 0 358 356 356 356
203 200 198 199 202 205 207 207 205 204 204 206 207 208 206 207 212 216 216 215 218 225 227 226 228 226 220 217 221 228 233 236 234 230 227 225 228 232 232 230 229 228 229 235 240 243 242 241 244 249 254 260 264 267 271 274 276 275 277 280 281 286 292 301 314 322 328 328 326 331 339 348 356 1 3 4 6 6 2 0 358 356 356 358 1
197 196 197 200 202 204 203 200 200 200 201 203 204 203 204 207 210 212 214 217 224 229 228 226 229 229 226 222 222 226 233 236 233 228 227 230 233 235 235 235 233 231 233 238 240 240 239 241 245 249 253 256 258 263 267 269 269 269 269 270 269 271 281 292 303 308 311 314 321 334 346 354 360 2 4 7 8 7 4 1 359 359 2 5 7
195 195 198 201 202 202 199 195 195 196 197 197 198 199 203 206 207 210 215 220 227 230 229 229 230 229 228 229 228 230 232 229 225 225 229 234 235 235 235 235 234 235 237 238 236 235 236 239 243 246 249 252 254 258 261 262 263 264 262 257 253 257 267 275 279 285 296 310 329 345 354 359 2 4 6 8 7 6 5 3 3 7 11 14 14
197 198 199 201 201 198 194 191 192 192 190 189 191 195 199 202 204 208 212 217 221 224 225 226 228 227 229 231 232 232 230 224 219 220 227 233 235 235 235 235 235 236 236 235 235 234 234 236 239 243 246 249 252 256 256 256 257 256 250 241 239 243 251 254 259 273 297 324 345 355 359 1 1 4 8 8 8 7 5 5 9 15 18 19 20
197 197 197 197 195 191 188 187 186 184 181 181 184 188 192 196 200 206 211 215 218 222 223 223 224 224 226 229 231 230 227 221 216 218 223 229 234 236 237 236 234 233 232 233 234 234 235 237 240 244 247 250 253 253 252 249 248 243 234 227 228 233 237 242 252 277 315 344 356 358 359 359 359 5 11 11 10 8 8 11 16 19 21 21 21
192 191 191 191 188 185 182 179 178 177 179 182 183 183 186 190 195 206 215 215 215 219 222 222 222 221 222 226 228 227 223 220 219 218 220 227 233 238 241 239 234 230 230 232 233 234 236 239 242 246 249 251 252 250 246 243 237 227 219 216 219 224 227 235 251 292 336 354 359 357 357 355 359 10 15 14 13 12 15 20 21 23 24 23 22
187 186 186 184 180 176 173 173 177 180 182 183 183 183 186 189 192 202 211 209 207 215 222 222 219 217 218 221 222 220 219 220 222 220 222 229 235 239 242 238 231 228 228 230 231 232 236 241 245 248 248 249 248 245 240 234 223 213 209 208 211 216 221 231 256 320 351 357 356 353 352 354 3 14 16 15 16 16 21 26 26 27 28 26 26
183 182 179 174 171 170 172 177 182 183 183 184 185 185 187 189 192 200 207 207 208 215 221 221 216 213 212 212 213 214 216 217 218 218 222 228 232 233 235 228 220 220 224 227 229 233 238 242 244 244 244 244 242 238 231 222 211 204 202 201 203 209 217 231 272 339 353 353 349 346 347 356 11 19 17 15 15 16 22 27 28 29 29 27 27
176 173 169 169 171 175 179 183 184 182 183 184 186 188 189 191 195 200 206 210 213 216 219 218 212 209 209 209 209 210 208 207 209 213 219 223 223 223 221 214 211 215 222 227 231 234 238 240 240 240 239 238 234 228 219 210 203 199 197 196 196 202 214 236 285 337 343 340 339 337 338 356 20 25 19 15 15 18 24 28 29 29 28 26 25
171 167 167 172 177 181 184 187 187 187 188 187 190 194 193 191 196 202 204 210 216 218 219 217 211 208 209 211 212 210 206 204 206 210 216 218 215 213 212 210 212 218 224 228 231 233 235 237 238 238 235 232 226 218 209 204 199 196 194 192 191 198 212 234 274 311 320 322 322 312 309 6 32 31 25 19 19 24 29 31 32 31 28 25 24
171 171 172 175 180 184 189 193 194 195 195 194 197 200 191 183 191 205 210 214 218 217 216 215 211 209 210 212 213 214 214 214 213 213 217 215 209 206 209 212 215 221 225 228 229 231 231 231 232 231 229 225 218 209 203 200 196 193 193 191 191 198 210 227 255 284 297 298 285 260 244 72 48 45 41 29 25 30 33 33 33 32 29 25 24
163 171 179 187 193 195 197 199 200 202 203 203 206 207 199 192 200 212 217 219 218 215 213 211 209 209 210 212 214 216 219 221 220 219 219 213 207 207 210 214 218 223 226 227 227 227 227 226 225 225 223 218 210 203 199 198 196 193 192 194 196 201 208 222 244 265 271 265 245 225 209 185 133 105 83 43 33 34 34 34 34 31 26 23 21
166 169 182 199 208 209 206 204 206 209 210 212 214 213 207 205 210 217 220 221 217 213 211 210 211 213 215 216 218 219 222 225 224 223 221 215 209 210 213 215 219 223 224 225 225 224 223 221 220 219 216 209 204 201 199 197 195 193 193 198 204 207 211 220 236 249 250 240 225 214 203 191 182 175 165 81 33 31 30 32 32 28 22 20 17
192 198 209 220 220 216 213 210 212 215 216 217 219 217 213 215 221 227 229 224 217 212 211 212 215 219 220 220 220 221 224 224 222 221 221 218 213 213 215 219 222 223 224 224 224 221 218 217 216 212 208 203 201 201 200 198 195 194 197 202 207 212 217 222 229 238 238 227 216 209 202 197 195 193 190 211 6 19 24 27 27 21 17 14 13
201 207 216 222 218 211 212 213 215 218 220 220 221 220 220 225 232 237 234 226 219 215 214 215 218 219 219 219 221 223 225 226 224 221 220 219 215 214 218 223 224 224 224 224 222 218 215 214 211 206 202 201 201 201 201 199 197 197 200 205 210 215 220 223 228 233 230 222 214 208 204 202 202 203 207 225 297 356 14 19 17 12 9 8 8
192 195 202 207 205 202 206 211 213 216 219 221 223 223 225 231 238 239 231 223 222 221 219 218 219 219 219 220 221 225 230 232 230 222 216 214 214 215 219 223 224 224 224 222 218 214 211 209 206 202 201 203 203 202 201 201 200 202 205 208 212 217 221 224 230 232 226 219 213 209 208 208 208 210 220 237 277 330 358 7 6 2 2 3 3
187 191 195 198 199 200 203 206 210 213 215 219 222 225 229 233 236 235 228 222 222 222 220 219 218 218 219 220 223 229 232 228 219 210 206 208 212 215 219 222 223 223 221 218 214 209 206 204 203 202 203 204 204 202 201 202 204 206 208 212 215 218 221 225 230 231 224 217 213 211 212 213 213 218 230 249 276 314 342 352 353 353 355 357 358
187 193 199 203 207 209 210 213 216 216 216 220 223 226 229 230 228 226 225 222 221 220 219 218 217 216 216 220 226 230 223 210 202 200 203 208 213 216 219 221 222 221 219 216 212 205 203 204 205 206 206 205 203 202 202 204 206 208 211 215 218 219 221 225 230 228 222 216 212 213 216 216 216 222 235 252 275 304 325 336 340 344 348 351 353
192 196 201 207 214 218 220 223 225 224 225 227 228 226 225 222 220 220 220 220 220 219 219 218 216 215 216 221 225 219 208 200 199 203 209 214 218 220 221 220 219 218 215 212 208 205 205 207 208 210 210 207 204 203 203 205 208 211 214 217 218 218 220 226 229 228 221 214 212 215 219 219 220 227 239 254 274 294 311 324 332 336 341 344 346
198 200 203 207 212 217 221 224 226 227 229 227 220 216 217 218 218 217 216 218 219 218 218 218 216 215 219 222 217 208 203 203 206 210 216 220 221 221 220 218 216 213 208 204 203 205 209 209 208 210 210 208 205 205 205 207 210 214 218 219 218 219 222 226 229 227 221 215 214 217 221 224 227 234 244 259 274 289 304 317 324 330 334 338 341
206 207 208 210 213 215 219 223 226 228 229 220 205 208 224 231 228 222 216 215 216 216 216 216 215 216 221 222 214 207 207 210 213 217 222 223 223 221 220 219 217 213 208 204 203 206 208 208 208 209 208 207 206 206 207 209 212 216 220 220 220 222 225 227 227 226 221 217 217 220 225 228 233 239 248 260 272 286 300 311 318 324 329 334 338
211 212 212 215 217 217 219 223 226 231 234 222 205 208 222 232 235 234 229 225 223 220 217 215 215 218 222 222 217 213 214 217 219 222 224 224 223 222 220 218 216 214 212 211 211 212 212 211 211 211 209 208 209 209 209 211 214 217 220 221 221 224 226 227 227 226 221 219 219 224 229 233 237 242 250 260 271 284 297 306 314 320 325 330 334